STARLINK-35347

Last updated on Mon Oct 20 2025 00:02:08 GMT+0000 (Coordinated Universal Time)

1 65907U 25224AB 25292.25002315 -.01435589 00000+0 -65782-2 0 9996 2 65907 53.1503 313.2918 0001097 86.2762 133.5263 15.85940163 3133
UTC large
Height (km)
Speed (km/s)
/
Latitude / Longitude
Inclination (degrees)
Orbital Period (minutes)
Azimuth
Elevation
Range (km)
Doppler Factor

Next 0 passes for location: London (51.5072 / 0.1276)

Sorry there are no passes over London.